Starlink 31937

operational
NORAD ID: 59871 Int'l Des: 2024-098 Owner: SPXS Country: US Constellation: starlink
LEOCIRCULAR

Starlink 31937について

説明を読み込み中...

リアルタイム位置

3D地球を読み込み中...

次回通過

高度履歴

Altitude vs Time

uPlot chart will show altitude changes over time

軌道要素

1 59871U 24098P 26035.19292689 -.00001746 00000-0 -53968-4 0 9990
2 59871 42.9989 100.2107 0000771 289.0976 70.9792 15.27569444 96804
Epoch: Feb 4, 2026 • Age: 6 hours

現在のステータス

高度 488.5 km
速度 7.62 km/s
衛星直下点 -24.30°S, 134.18°E
打ち上げ日 May 24, 2024
運用期間 1.7 years
タイプ internet

技術仕様

分類 Payload
質量 730.00 kg
乾燥質量 700.00 kg
総質量 730.00 kg
長さ 0.30 m
直径 4.10 m
スパン 29.00 m
形状 Box + pan
製造者 SPXS
バスタイプ Starlink V2M
フェーズステータス In Orbit
所有者/国 SPXS/US

大規模コンステレーション

Loading constellations...